Regional Weather Roundup
Issued by NWS Northern Indiana

Home | Current Version | Previous Version | Graphics & Text | Print | Product List | Glossary On
Versions: 1 2 3 4 5 6 7 8 9 10 11 12 13 14 15 16 17 18 19 20 21 22 23 24 25 26 27 28 29 30 31 32 33 34 35 36 37 38 39 40 41 42 43 44 45 46 47 48 49 50
000
ASUS43 KIWX 252310
RWRIWX

KIWX WEATHER ROUNDUP
NATIONAL WEATHER SERVICE NORTHERN INDIANA
600 PM EST SAT FEB 25 2017

NOTE: "FAIR" INDICATES FEW OR NO CLOUDS BELOW 12,000 FEET WITH NO
SIGNIFICANT WEATHER AND/OR OBSTRUCTIONS TO VISIBILITY.

* THESE STATIONS ARE NOT UNDER NWS QUALITY CONTROL. THEY ALSO MAY NOT
  REPORT WEATHER SUCH AS PRECIPITATION OR FOG.

INZ001>027-260000-
NORTHERN INDIANA

CITY           SKY/WX    TMP DP  RH WIND       PRES   REMARKS
GARY*          CLOUDY    28  12  50 W20G32    29.97R WCI  15
VALPARAISO     CLOUDY    28  16  60 W16       29.95R WCI  16
MICHIGAN CITY* CLOUDY    28  18  64 W9G21     29.96R WCI  20
LAPORTE*       LGT SNOW  25  20  79 NW10      29.94R WCI  15
KNOX*          CLOUDY    28   0  29 W13G21    29.95R WCI  18
SOUTH BEND     CLOUDY    24  16  71 NW14      29.93R WCI  12
GOSHEN         FLURRIES  25  17  72 W18       29.92R WCI  11
MONTICELLO*    CLOUDY    30  17  57 W20       29.96R WCI  17
LOGANSPORT*    CLOUDY    30  19  64 W20G26    29.96R WCI  18
ROCHESTER*     MOCLDY    32  18  55 W13G22    29.95R WCI  22
WARSAW*        CLOUDY    27  14  59 W20       29.92R WCI  13
ANGOLA*        CLOUDY    25  18  74 W12       29.88R WCI  14
FORT WAYNE     FLURRIES  27  18  69 W23G30    29.92R WCI  12
HUNTINGTON*    CLOUDY    27  17  64 W13G18    29.93R WCI  16
PERU/GRISSOM   CLOUDY    29  18  62 W22       29.93R WCI  16
MARION*        CLOUDY    28  21  76 W22G28    29.96R WCI  13

$$
INZ028>050-260000-
CENTRAL INDIANA

CITY           SKY/WX    TMP DP  RH WIND       PRES   REMARKS
LAFAYETTE      CLOUDY    29  19  66 W14G28    29.99R WCI  18
KOKOMO*        CLOUDY    29  20  69 W21G28    29.96R WCI  16
MUNCIE*        CLOUDY    29  18  63 W17G32    29.96R WCI  17
INDIANAPOLIS   MOCLDY    32  16  51 W18G30    29.99R WCI  20

$$
MIZ043>046-050>051-056>058-064>065-071>073-077>080-260000-
SOUTHWEST LOWER MICHIGAN

CITY           SKY/WX    TMP DP  RH WIND       PRES   REMARKS
BATTLE CREEK   FLURRIES  23  16  74 W18G29    29.88R WCI   9
BENTON HARBOR  CLOUDY    25  15  66 W17       29.93R WCI  12
COLDWATER*     LGT SNOW  25  20  79 W15       29.88R WCI  13
HILLSDALE*     LGT SNOW  23  19  86 W14G20    29.84R WCI  11
HOLLAND        LGT SNOW  23  15  71 W15G24    29.90R WCI  10
GRAND RAPIDS   LGT SNOW  22  16  78 W15       29.86R WCI   9
KALAMAZOO      LGT SNOW  23  14  68 W15G29    29.90R WCI  10
STURGIS*       FLURRIES  25  18  73 W16G24    29.89R WCI  12
THREE RIVERS*  LGT SNOW  24  19  78 NW13G23   29.91R WCI  13

$$
OHZ001>008-015>018-024>025-260000-
NORTHWEST OHIO

CITY           SKY/WX    TMP DP  RH WIND       PRES   REMARKS
WAUSEON*       FLURRIES  27  18  69 W22G31    29.88R WCI  12
DEFIANCE       FLURRIES  25  19  78 W10G18    29.92R WCI  15
FINDLAY        CLOUDY    28  16  60 W23G30    29.90R WCI  14
TOLEDO EXPRESS LGT SNOW  26  20  77 W18G26    29.88R WCI  13
TOLEDO METCALF CLOUDY    29  18  63 W23G32    29.88R WCI  15
LIMA           CLOUDY    26  20  77 W20G25    29.92R WCI  12

$$
AND FOR LAKE MICHIGAN COASTAL AND OPEN LAKE BUOY OBSERVATIONS

STATION/POSITION TEMP    WIND        PRES    VSBY  WAVE
                 AIR SEA DIR/SP/G                  HT/PER
                 (F)     (DEG/KT/KT) (MB)    (MI)  (FT/S)
CALUMET HARBOR    27     260/  8/ 16 1013.9R
MICHIGAN CITY     26     250/ 26/ 29   N/A
BURNS HARBOR      28     280/ 20/ 25 1014.6R
SAINT JOSEPH      27     270/ 18/ 22 1014.6

$$
&&




USA.gov is the U.S. government's official web portal to all federal, state and local government web resources and services.